Regional Weather Roundup
Issued by NWS Huntsville, AL

Home | Current Version | Previous Version | Text Only | Print | Product List | Glossary On
Versions: 1 2 3 4 5 6 7 8 9 10 11 12 13 14 15 16 17 18 19 20 21 22 23 24 25 26 27 28
000
ASUS44 KHUN 232110
RWRHUN

WEATHER ROUNDUP FOR THE TENNESSEE VALLEY
NATIONAL WEATHER SERVICE HUNTSVILLE AL
400 PM CDT WED AUG 23 2017

ALZ001>004-232200-
NORTHWEST ALABAMA

CITY           SKY/WX    TMP DP  RH WIND       PRES   REMARKS
COURTLAND HCN    N/A     84 N/A N/A NE5         N/A
RUSSELLVILLE     N/A     82 N/A N/A MISG        N/A
SHOALS AIRPORT MOSUNNY   84  64  50 VRB6      29.97F
SHOALS TVA RES   N/A     84 N/A N/A MISG        N/A
$$

ALZ005>007-016-232200-
NORTH CENTRAL ALABAMA

CITY           SKY/WX    TMP DP  RH WIND       PRES   REMARKS
CULLMAN AG STN   N/A     82 N/A N/A N7          N/A
DECATUR AP     MOSUNNY   84  67  56 N7        29.95F
HUNTSVILLE AP  MOSUNNY   87  66  49 N9        29.95F
MERIDIANVILLE  MOSUNNY   82  61  47 NW9       29.96F
REDSTONE ARSN  SUNNY     85  64  49 N9        29.94F
VINEMONT AP    FAIR      83  64  53 N3        29.98F
$$

ALZ008>010-232200-
NORTHEAST ALABAMA

CITY           SKY/WX    TMP DP  RH WIND       PRES   REMARKS
ALBERTVILLE    MOSUNNY   82  72  69 N12       29.94F
FORT PAYNE     MOSUNNY   86  59  39 N8        29.93F
SCOTTSBORO HCN   N/A     86 N/A N/A MISG        N/A
$$

TNZ076-096-097-232200-
SOUTHEASTERN MIDDLE TENNESSEE

CITY           SKY/WX    TMP DP  RH WIND       PRES   REMARKS
TULLAHOMA      MOSUNNY   81  59  47 N8        29.99F
$$

...SURROUNDING SITES...

CITY           SKY/WX    TMP DP  RH WIND       PRES   REMARKS
ATLANTA        MOSUNNY   87  65  47 N7        29.91F
ANNISTON       MOSUNNY   86  68  54 W8        29.91F
BIRMINGHAM     PTSUNNY   85  68  56 N9        29.95F
CHATTANOOGA    MOSUNNY   88  60  38 NW9       29.92F
DALTON         NOT AVBL
GADSDEN        PTSUNNY   89  69  51 NW8       29.92F HX  93
GOLDEN TRNGL   PTSUNNY   90  70  51 N9        29.89F HX  95
HALEYVILLE     FAIR      82  69  64 N6        29.99F
JACKSON TN     CLOUDY    80  63  55 N8        30.00F
MEMPHIS        CLOUDY    82  66  58 N8        29.98F
NASHVILLE      PTSUNNY   83  57  41 N8        29.99F
OXFORD MS      FAIR      82  68  61 N8        29.99F
ROME           SUNNY     91  66  43 MISG      29.90F HX  93
SAVANNAH       MOSUNNY   82  66  57 N6        29.97F
SELMER         SUNNY     81  64  57 N8G14     29.98F
TUPELO         MOSUNNY   87  66  49 NW10      29.95F
TUSCALOOSA     PTSUNNY   90  73  57 NE9       29.91F HX  98
$$

...GULF COAST WEATHER...

CITY           SKY/WX    TMP DP  RH WIND       PRES   REMARKS
GULFPORT       CLOUDY    87  76  69 S7        29.88F HX  97
PASCAGOULA     CLOUDY    89  75  63 S7        29.88F HX  99
MOBILE         MOSUNNY   90  74  59 NW5       29.89F HX  99
GULF SHORES    CLEAR     88  77  68 S12G18    29.87F HX 100
PENSACOLA      PTSUNNY   89  73  59 S10       29.87F HX  97
DESTIN         SUNNY     93  72  50 VRB6      29.87F HX 101
PANAMA CITY    SUNNY     91  71  52 SW10      29.87F HX  96
APPALACHICOLA  SUNNY     89  77  67 S9        29.87F HX 101
$$





USA.gov is the U.S. government's official web portal to all federal, state and local government web resources and services.